[Iaude] MPEC D30: 2013 UW18 [a=39.18,e=0.20,i=6.8,H=8.5]

mpec at mpcdb1.cfa.harvard.edu mpec at mpcdb1.cfa.harvard.edu
Tue Feb 20 13:07:19 EST 2018


M.P.E.C. 2018-D30                                Issued 2018 Feb. 20, 18:02 UT
 
     The Minor Planet Electronic Circulars contain information on unusual
         minor planets and routine data on comets.  They are published
    on behalf of Division F of the International Astronomical Union by the
          Minor Planet Center, Smithsonian Astrophysical Observatory,
                          Cambridge, MA 02138, U.S.A.

             Prepared using the Tamkin Foundation Computer Network

                              MPC at CFA.HARVARD.EDU
            URL https://www.minorplanetcenter.net/    ISSN 1523-6714


                                   2013 UW18
 
Observations:
     K13U18W @C2013 08 02.50467 00 57 19.059+04 11 59.92         24.4 rqED030568
     K13U18W @C2013 08 02.54741 00 57 18.990+04 11 59.20         24.6 rqED030568
     K13U18W @C2013 08 11.50367 00 57 02.353+04 09 33.90         24.3 rqED030568
     K13U18W @C2013 08 31.42413 00 56 02.060+04 01 50.99         23.9 rqED030568
     K13U18W @C2013 08 31.46730 00 56 01.896+04 01 49.75         24.1 rqED030568
     K13U18W @C2013 09 04.40430 00 55 46.690+03 59 59.55         24.0 rqED030568
     K13U18W @C2013 09 04.44707 00 55 46.511+03 59 58.45         24.2 rqED030568
     K13U18W @C2013 10 05.37632 00 53 23.791+03 43 33.27         23.7 rqED030568
     K13U18W @C2013 10 06.37972 00 53 18.791+03 42 59.80         23.9 rqED030568
     K13U18W @C2013 10 06.44410 00 53 18.455+03 42 57.70         24.0 rqED030568
     K13U18W @C2013 10 09.50879 00 53 03.184+03 41 16.05         23.7 rqED030568
     K13U18W*@C2013 10 31.22708 00 51 19.232+03 29 56.67         24.0 rqED030568
     K13U18W @C2013 10 31.27019 00 51 19.011+03 29 55.23         24.3 rqED030568
     K13U18W @C2013 10 31.31297 00 51 18.805+03 29 53.90         24.2 rqED030568
     K13U18W @C2013 11 01.25343 00 51 14.640+03 29 27.30         23.9 rqED030568
     K13U18W @C2013 11 05.37780 00 50 56.844+03 27 33.79         24.3 rqED030568
     K13U18W @C2013 11 06.34704 00 50 52.792+03 27 07.89               qED030568
     K13U18W @C2013 11 06.39952 00 50 52.574+03 27 06.77         24.5 rqED030568
     K13U18W @C2013 11 07.43574 00 50 48.293+03 26 39.45         24.0 rqED030568
     K13U18W @C2013 12 05.31529 00 49 21.319+03 17 44.13         24.4 rqED030568
     K13U18W @C2014 07 24.53752 01 03 39.901+04 40 31.28         24.3 rqED030568
     K13U18W @C2014 07 27.56807 01 03 38.156+04 40 04.44         24.4 rqED030568
     K13U18W @C2014 08 22.61348 01 02 48.580+04 32 48.24         23.7 rqED030568
     K13U18W @C2014 08 28.45040 01 02 29.771+04 30 25.76         24.3 rqED030568
     K13U18W @C2014 10 23.28767 00 58 13.401+04 01 16.32         23.8 rqED030568
     K13U18W @C2014 10 27.25444 00 57 54.427+03 59 14.71         24.2 rqED030568
     K13U18W @C2014 11 19.20738 00 56 18.596+03 49 14.11         24.2 rqED030568
     K13U18W @C2014 11 19.27463 00 56 18.351+03 49 12.73         24.0 rqED030568
     K13U18W @C2014 11 25.22391 00 55 58.950+03 47 15.57         24.6 rqED030568
     K13U18W @C2014 12 17.32324 00 55 13.481+03 42 58.52         24.4 rqED030568
     K13U18W @C2015 01 17.26407 00 55 31.392+03 45 43.52         24.4 rqED030568
 
Observer details:
568 Mauna Kea.  Observers M. T. Bannister, J. J. Kavelaars, B. J. Gladman,
    J.-M. Petit, T. Burdullis.  Measurers S. D. J. Gwyn, Y.-T. Chen,
    M. Alexandersen.  3.6-m Canada-France-Hawaii Telescope + CCD.
 
Orbital elements:
2013 UW18
Epoch 2018 Mar. 23.0 TT = JDT 2458200.5                 MPC
M 300.85530              (2000.0)            P               Q
n   0.00401853     Peri.  283.73672     -0.21221136     -0.97721892
a  39.1823890      Node   178.50483     +0.93605775     -0.20417749
e   0.2008246      Incl.    6.79034     +0.28064608     -0.05792004
P 245              H    8.5           G   0.15           U   4
Residuals in seconds of arc
130802 568  0.0   0.1+    131031 568  0.5+  0.1+    140822 568  0.1+  0.1-
130802 568  0.1-  0.1-    131031 568  0.1+  0.1-    140828 568  0.0   0.0
130811 568  0.1-  0.7+    131031 568  0.1-  0.2-    141023 568  0.0   0.2-
130831 568  0.1+  0.0     131101 568  0.1-  0.0     141027 568  0.1-  0.1+
130831 568  0.1+  0.1-    131105 568  0.0   0.0     141119 568  0.0   0.0
130904 568  0.0   0.1-    131106 568  0.0   0.1-    141119 568  0.0   0.1+
130904 568  0.1-  0.0     131106 568  0.1+  0.2+    141125 568  0.0   0.1+
131005 568  0.1+  0.0     131107 568  0.0   0.0     141217 568  0.1-  0.1+
131006 568  0.0   0.1-    131205 568  0.1-  0.0     150117 568  0.0   0.1+
131006 568  0.1-  0.1-    140724 568  0.0   0.0
131009 568  0.1-  0.0     140727 568  0.0   0.1-

Ephemeris:
2013 UW18                a,e,i = 39.18, 0.20, 7                  q = 31.314
Date    TT    R. A. (2000) Decl.     Delta      r     Elong.  Phase     V
2018 01 21    01 14 18.0 +05 06 33  36.7036 36.5193    78.4     1.5    24.3
...
2018 02 05    01 15 01.0 +05 11 32  36.9413 36.5109    63.4     1.4    24.3
...
2018 02 13    01 15 32.6 +05 15 01  37.0569 36.5065    55.5     1.3    24.3
...
2018 02 19    01 15 59.9 +05 17 57  37.1367 36.5031    49.6     1.2    24.3
2018 02 20    01 16 04.7 +05 18 28  37.1493 36.5026    48.6     1.2    24.3
2018 02 21    01 16 09.6 +05 18 59  37.1618 36.5020    47.6     1.1    24.3
...
2018 02 27    01 16 40.6 +05 22 15  37.2321 36.4987    41.7     1.0    24.3
...
2018 03 07    01 17 25.5 +05 26 55  37.3136 36.4942    33.9     0.9    24.3
...
2018 03 22    01 18 58.9 +05 36 22  37.4239 36.4858    19.4     0.5    24.3

A. U. Tomatic                (C) Copyright 2018 MPC           M.P.E.C. 2018-D30



More information about the Iaude mailing list